User: anonymous
Location: Plymouth
(43.7570°N, 71.6890°W)
Time: 04:17:58
(UTC-04:00)
Language:

Meteor 1-28 Rocket - Orbit

View from above orbital plane
View from above orbital plane
View from above satellite
View from above satellite

Ground track
Ground track

The orbit data is extracted from the following two-line orbital elements,

1 10114U 77057B   14208.79423222  .00001038  00000-0  61349-4 0  3037
2 10114 097.2659 067.2120 0016006 046.4788 313.7770 15.13475280 23701
Epoch (UTC): 27 July 2014 19:03:41
Eccentricity: 0.0016006
inclination: 97.2659°
perigee height: 514 km
apogee height: 536 km
right ascension of ascending node: 67.2120°
argument of perigee: 46.4788°
revolutions per day: 15.13475280
mean anomaly at epoch: 313.7770°
orbit number at epoch: 2370

The dashed part of the orbit path shows where the satellite is in the earth's shadow,  

DLR